When you browse on this site, cookies collect data to enhance your experience and personalize the content and advertising you see.
Visit our Privacy Policy to learn more. By continuing to use the site, you agree to this use of cookies and data.
  • In Hungary
  • List of Countries
  • For 7 days
  • Water Temperature
  • Satellite Maps
  • Weather Map
  • News
  • Weather Widgets
  • user-avatar
    Login

    Hourly Weather Golovanevsk

    Today, 23 January, Wednesday

    Time Temperature Precipitation Wind Pressure Humidity
    00:00 -11°C° 0.4 mm 4 mps 746 mmHg 94%
    01:00 -12°C° 0.4 mm 5 mps 745 mmHg 95%
    02:00 -12°C° 0 mm 5 mps 744 mmHg 95%
    03:00 -11°C° 0.7 mm 5 mps 744 mmHg 95%
    04:00 -11°C° 0.7 mm 6 mps 743 mmHg 95%
    05:00 -11°C° 0.7 mm 6 mps 742 mmHg 95%
    06:00 -10°C° 1.1 mm 6 mps 742 mmHg 95%
    07:00 -10°C° 1.1 mm 6 mps 741 mmHg 95%
    08:00 -10°C° 1.1 mm 6 mps 741 mmHg 95%
    09:00 -9°C° 0.9 mm 7 mps 740 mmHg 95%
    10:00 -8°C° 0.9 mm 7 mps 740 mmHg 95%
    11:00 -7°C° 0.9 mm 7 mps 739 mmHg 95%
    12:00 -6°C° 1.1 mm 7 mps 739 mmHg 95%
    13:00 -4°C° 1.1 mm 6 mps 738 mmHg 95%
    14:00 -3°C° 1.1 mm 6 mps 737 mmHg 95%
    15:00 -3°C° 1 mm 6 mps 737 mmHg 95%
    16:00 -2°C° 1 mm 5 mps 736 mmHg 96%
    17:00 -2°C° 1 mm 4 mps 736 mmHg 96%
    18:00 -1°C° 0.1 mm 3 mps 736 mmHg 97%
    19:00 -1°C° 0.1 mm 2 mps 736 mmHg 98%
    20:00 +2°C° 0.1 mm 1 mps 736 mmHg 99%
    21:00 +2°C° 0 mm 1 mps 736 mmHg 99%
    22:00 +2°C° 0 mm 1 mps 736 mmHg 99%
    23:00 +2°C° 0 mm 1 mps 736 mmHg 99%

    Tomorrow, 24 January, Thursday

    Time Temperature Precipitation Wind Pressure Humidity
    00:00 +2°C° 0 mm 1 mps 736 mmHg 98%
    01:00 +1°C° 0 mm 0 mps 737 mmHg 98%
    02:00 +1°C° 0 mm 0 mps 737 mmHg 97%
    03:00 +1°C° 0 mm 1 mps 737 mmHg 97%
    04:00 +1°C° 0 mm 1 mps 737 mmHg 97%
    05:00 -1°C° 0 mm 2 mps 737 mmHg 97%
    06:00 -1°C° 0.1 mm 3 mps 737 mmHg 97%
    07:00 -1°C° 0.1 mm 3 mps 737 mmHg 97%
    08:00 -2°C° 0.1 mm 4 mps 737 mmHg 97%
    09:00 -2°C° 0.2 mm 4 mps 737 mmHg 97%
    10:00 -2°C° 0.2 mm 4 mps 737 mmHg 98%
    11:00 -2°C° 0.2 mm 4 mps 738 mmHg 98%
    12:00 -2°C° 0.2 mm 5 mps 737 mmHg 98%
    13:00 -2°C° 0.2 mm 5 mps 737 mmHg 98%
    14:00 -2°C° 0.2 mm 5 mps 737 mmHg 98%
    15:00 -2°C° 0.5 mm 5 mps 737 mmHg 99%
    16:00 -2°C° 0.5 mm 5 mps 737 mmHg 99%
    17:00 -2°C° 0.5 mm 5 mps 738 mmHg 99%
    18:00 -2°C° 0.2 mm 5 mps 738 mmHg 99%
    19:00 -2°C° 0.2 mm 5 mps 738 mmHg 98%
    20:00 -2°C° 0.2 mm 5 mps 738 mmHg 97%
    21:00 -2°C° 0.1 mm 4 mps 738 mmHg 98%
    22:00 -1°C° 0.1 mm 4 mps 738 mmHg 98%
    23:00 -1°C° 0.1 mm 4 mps 738 mmHg 99%

    Day after tomorrow, 25 January, Friday

    Time Temperature Precipitation Wind Pressure Humidity
    00:00 -1°C° 0.1 mm 4 mps 738 mmHg 99%
    01:00 -1°C° 0.1 mm 4 mps 738 mmHg 99%
    02:00 -1°C° 0.1 mm 4 mps 738 mmHg 99%
    03:00 -1°C° 0.1 mm 5 mps 738 mmHg 99%
    04:00 -1°C° 0.1 mm 5 mps 738 mmHg 99%
    05:00 0°C° 0.1 mm 5 mps 738 mmHg 99%
    06:00 -1°C° 0 mm 5 mps 738 mmHg 99%
    07:00 -1°C° 0 mm 4 mps 738 mmHg 99%
    08:00 -1°C° 0 mm 4 mps 738 mmHg 99%
    09:00 -1°C° 0.1 mm 4 mps 739 mmHg 99%
    10:00 -1°C° 0.1 mm 4 mps 739 mmHg 99%
    11:00 0°C° 0.1 mm 3 mps 739 mmHg 99%
    12:00 -1°C° 0 mm 4 mps 739 mmHg 99%
    13:00 -2°C° 0 mm 4 mps 739 mmHg 99%
    14:00 -2°C° 0 mm 4 mps 739 mmHg 99%
    15:00 -2°C° 0 mm 4 mps 739 mmHg 99%
    16:00 -2°C° 0 mm 4 mps 739 mmHg 98%
    17:00 -1°C° 0 mm 3 mps 739 mmHg 97%
    18:00 -1°C° 0 mm 3 mps 739 mmHg 97%
    19:00 -1°C° 0 mm 3 mps 739 mmHg 96%
    20:00 -1°C° 0 mm 3 mps 739 mmHg 96%
    21:00 -1°C° 0 mm 3 mps 739 mmHg 96%
    22:00 -1°C° 0 mm 2 mps 739 mmHg 96%
    23:00 +1°C° 0 mm 1 mps 740 mmHg 97%

    26 January, Saturday

    Time Temperature Precipitation Wind Pressure Humidity
    00:00 +1°C° 0 mm 1 mps 739 mmHg 97%
    01:00 +1°C° 0 mm 1 mps 739 mmHg 97%
    02:00 -1°C° 0 mm 2 mps 739 mmHg 97%
    03:00 -1°C° 0 mm 2 mps 739 mmHg 97%
    04:00 -1°C° 0 mm 2 mps 739 mmHg 97%
    05:00 -1°C° 0 mm 2 mps 738 mmHg 98%
    06:00 +1°C° 0 mm 2 mps 738 mmHg 98%
    07:00 +1°C° 0 mm 2 mps 738 mmHg 98%
    08:00 +1°C° 0 mm 2 mps 739 mmHg 98%
    09:00 +1°C° 0 mm 2 mps 739 mmHg 98%
    10:00 +1°C° 0 mm 2 mps 739 mmHg 99%
    11:00 +1°C° 0 mm 2 mps 739 mmHg 99%
    12:00 +1°C° 0 mm 2 mps 738 mmHg 99%
    13:00 +1°C° 0 mm 2 mps 738 mmHg 99%
    14:00 +1°C° 0 mm 2 mps 738 mmHg 99%
    15:00 +1°C° 0 mm 2 mps 738 mmHg 99%
    16:00 +1°C° 0 mm 2 mps 738 mmHg 99%
    17:00 +1°C° 0 mm 2 mps 738 mmHg 99%
    18:00 +1°C° 0 mm 2 mps 738 mmHg 99%
    19:00 +1°C° 0 mm 2 mps 738 mmHg 99%
    20:00 +1°C° 0 mm 2 mps 738 mmHg 99%
    21:00 +1°C° 0 mm 2 mps 738 mmHg 99%
    22:00 +1°C° 0 mm 2 mps 738 mmHg 99%
    23:00 +1°C° 0 mm 2 mps 738 mmHg 98%

    27 January, Sunday

    Time Temperature Precipitation Wind Pressure Humidity
    00:00 +1°C° 0 mm 2 mps 738 mmHg 98%
    01:00 -1°C° 0 mm 2 mps 738 mmHg 97%
    02:00 -1°C° 0 mm 2 mps 738 mmHg 97%
    03:00 -1°C° 0 mm 2 mps 737 mmHg 97%
    04:00 +1°C° 0 mm 2 mps 737 mmHg 98%
    05:00 +1°C° 0 mm 2 mps 737 mmHg 98%
    06:00 +1°C° 0 mm 2 mps 737 mmHg 98%
    07:00 +1°C° 0 mm 2 mps 737 mmHg 99%
    08:00 +1°C° 0 mm 2 mps 738 mmHg 99%
    09:00 +1°C° 0 mm 2 mps 738 mmHg 99%
    10:00 +1°C° 0 mm 2 mps 738 mmHg 99%
    11:00 +1°C° 0 mm 2 mps 738 mmHg 100%
    12:00 +1°C° 0 mm 2 mps 738 mmHg 100%
    13:00 +1°C° 0 mm 2 mps 738 mmHg 100%
    14:00 +1°C° 0 mm 2 mps 737 mmHg 100%
    15:00 +1°C° 0 mm 2 mps 738 mmHg 99%
    16:00 +1°C° 0 mm 2 mps 738 mmHg 99%
    17:00 +1°C° 0 mm 2 mps 738 mmHg 99%
    18:00 +1°C° 0 mm 2 mps 738 mmHg 99%
    19:00 +1°C° 0 mm 2 mps 738 mmHg 99%
    20:00 +1°C° 0 mm 2 mps 738 mmHg 99%
    21:00 +1°C° 0 mm 2 mps 739 mmHg 99%
    22:00 +1°C° 0 mm 2 mps 739 mmHg 99%
    23:00 +1°C° 0 mm 2 mps 739 mmHg 99%

    28 January, Monday

    Time Temperature Precipitation Wind Pressure Humidity
    00:00 -1°C° 0 mm 2 mps 739 mmHg 99%
    01:00 -1°C° 0 mm 2 mps 739 mmHg 98%
    02:00 -1°C° 0 mm 2 mps 739 mmHg 98%
    03:00 -1°C° 0 mm 2 mps 739 mmHg 98%
    04:00 -1°C° 0 mm 2 mps 739 mmHg 98%
    05:00 -1°C° 0 mm 2 mps 739 mmHg 98%
    06:00 -1°C° 0 mm 2 mps 739 mmHg 98%
    07:00 -1°C° 0 mm 2 mps 739 mmHg 99%
    08:00 -1°C° 0 mm 2 mps 739 mmHg 99%
    09:00 +1°C° 0 mm 2 mps 740 mmHg 99%
    10:00 +1°C° 0 mm 2 mps 740 mmHg 99%
    11:00 +1°C° 0 mm 2 mps 740 mmHg 100%
    12:00 +1°C° 0 mm 2 mps 740 mmHg 99%
    13:00 +1°C° 0 mm 2 mps 740 mmHg 99%
    14:00 +1°C° 0 mm 2 mps 740 mmHg 99%
    15:00 +1°C° 0 mm 2 mps 741 mmHg 99%
    16:00 +1°C° 0 mm 2 mps 741 mmHg 99%
    17:00 +1°C° 0 mm 2 mps 741 mmHg 99%
    18:00 +1°C° 0 mm 2 mps 741 mmHg 99%
    19:00 +1°C° 0 mm 2 mps 742 mmHg 99%
    20:00 +1°C° 0 mm 2 mps 742 mmHg 99%
    21:00 +1°C° 0 mm 2 mps 742 mmHg 98%
    22:00 +1°C° 0 mm 2 mps 742 mmHg 98%
    23:00 +1°C° 0 mm 2 mps 742 mmHg 98%
    Show more